Year,Month,Day,Hour,Minute,Value (Times are PST for temperature in C)
2015,07,04,00,00,16.90
2015,07,04,00,01,16.80
2015,07,04,00,02,16.80
2015,07,04,00,03,16.80
2015,07,04,00,04,16.80
2015,07,04,00,05,16.70
2015,07,04,00,06,16.70
2015,07,04,00,07,16.70
2015,07,04,00,08,16.60
2015,07,04,00,09,16.60
2015,07,04,00,10,16.50
2015,07,04,00,11,16.50
2015,07,04,00,12,16.40
2015,07,04,00,13,16.40
2015,07,04,00,14,16.40
2015,07,04,00,15,16.40
2015,07,04,00,16,16.40
2015,07,04,00,17,16.40
2015,07,04,00,18,16.40
2015,07,04,00,19,16.40
2015,07,04,00,20,16.40
2015,07,04,00,21,16.40
2015,07,04,00,22,16.50
2015,07,04,00,23,16.50
2015,07,04,00,24,16.70
2015,07,04,00,25,16.80
2015,07,04,00,26,16.90
2015,07,04,00,27,17.10
2015,07,04,00,28,17.30
2015,07,04,00,29,17.40
2015,07,04,00,30,17.50
2015,07,04,00,31,17.50
2015,07,04,00,32,17.60
2015,07,04,00,33,17.50
2015,07,04,00,34,17.50
2015,07,04,00,35,17.50
2015,07,04,00,36,17.40
2015,07,04,00,37,17.40
2015,07,04,00,38,17.30
2015,07,04,00,39,17.30
2015,07,04,00,40,17.20
2015,07,04,00,41,17.20
2015,07,04,00,42,17.20
2015,07,04,00,43,17.10
2015,07,04,00,44,17.10
2015,07,04,00,45,17.10
2015,07,04,00,46,17.00
2015,07,04,00,47,17.00
2015,07,04,00,48,17.00
2015,07,04,00,49,17.00
2015,07,04,00,50,17.00
2015,07,04,00,51,17.00
2015,07,04,00,52,17.00
2015,07,04,00,53,17.00
2015,07,04,00,54,17.00
2015,07,04,00,55,17.10
2015,07,04,00,56,17.20
2015,07,04,00,57,17.20
2015,07,04,00,58,17.30
2015,07,04,00,59,17.30
2015,07,04,01,00,17.40
2015,07,04,01,01,17.50
2015,07,04,01,02,17.60
2015,07,04,01,03,17.70
2015,07,04,01,04,17.80
2015,07,04,01,05,17.90
2015,07,04,01,06,18.00
2015,07,04,01,07,18.10
2015,07,04,01,08,18.20
2015,07,04,01,09,18.30
2015,07,04,01,10,18.40
2015,07,04,01,11,18.40
2015,07,04,01,12,18.50
2015,07,04,01,13,18.50
2015,07,04,01,14,18.50
2015,07,04,01,15,18.50
2015,07,04,01,16,18.50
2015,07,04,01,17,18.40
2015,07,04,01,18,18.40
2015,07,04,01,19,18.40
2015,07,04,01,20,18.40
2015,07,04,01,21,18.30
2015,07,04,01,22,18.30
2015,07,04,01,23,18.20
2015,07,04,01,24,18.20
2015,07,04,01,25,18.20
2015,07,04,01,26,18.10
2015,07,04,01,27,18.10
2015,07,04,01,28,18.10
2015,07,04,01,29,18.10
2015,07,04,01,30,18.20
2015,07,04,01,31,18.20
2015,07,04,01,32,18.20
2015,07,04,01,33,18.20
2015,07,04,01,34,18.20
2015,07,04,01,35,18.30
2015,07,04,01,36,18.30
2015,07,04,01,37,18.40
2015,07,04,01,38,18.40
2015,07,04,01,39,18.40
2015,07,04,01,40,18.40
2015,07,04,01,41,18.40
2015,07,04,01,42,18.40
2015,07,04,01,43,18.40
2015,07,04,01,44,18.40
2015,07,04,01,45,18.50
2015,07,04,01,46,18.50
2015,07,04,01,47,18.50
2015,07,04,01,48,18.50
2015,07,04,01,49,18.60
2015,07,04,01,50,18.60
2015,07,04,01,51,18.70
2015,07,04,01,52,18.70
2015,07,04,01,53,18.70
2015,07,04,01,54,18.70
2015,07,04,01,55,18.70
2015,07,04,01,56,18.70
2015,07,04,01,57,18.60
2015,07,04,01,58,18.60
2015,07,04,01,59,18.50
2015,07,04,02,00,18.50
2015,07,04,02,01,18.40
2015,07,04,02,02,18.40
2015,07,04,02,03,18.30
2015,07,04,02,04,18.30
2015,07,04,02,05,18.30
2015,07,04,02,06,18.30
2015,07,04,02,07,18.20
2015,07,04,02,08,18.10
2015,07,04,02,09,18.00
2015,07,04,02,10,17.90
2015,07,04,02,11,17.80
2015,07,04,02,12,17.70
2015,07,04,02,13,17.60
2015,07,04,02,14,17.50
2015,07,04,02,15,17.50
2015,07,04,02,16,17.40
2015,07,04,02,17,17.30
2015,07,04,02,18,17.30
2015,07,04,02,19,17.20
2015,07,04,02,20,17.20
2015,07,04,02,21,17.10
2015,07,04,02,22,17.00
2015,07,04,02,23,16.90
2015,07,04,02,24,16.80
2015,07,04,02,25,16.70
2015,07,04,02,26,16.60
2015,07,04,02,27,16.50
2015,07,04,02,28,16.50
2015,07,04,02,29,16.40
2015,07,04,02,30,16.30
2015,07,04,02,31,16.30
2015,07,04,02,32,16.20
2015,07,04,02,33,16.10
2015,07,04,02,34,16.10
2015,07,04,02,35,16.00
2015,07,04,02,36,15.90
2015,07,04,02,37,15.90
2015,07,04,02,38,15.80
2015,07,04,02,39,15.70
2015,07,04,02,40,15.70
2015,07,04,02,41,15.70
2015,07,04,02,42,15.60
2015,07,04,02,43,15.50
2015,07,04,02,44,15.50
2015,07,04,02,45,15.40
2015,07,04,02,46,15.30
2015,07,04,02,47,15.30
2015,07,04,02,48,15.20
2015,07,04,02,49,15.20
2015,07,04,02,50,15.10
2015,07,04,02,51,15.10
2015,07,04,02,52,15.10
2015,07,04,02,53,15.00
2015,07,04,02,54,15.00
2015,07,04,02,55,14.90
2015,07,04,02,56,14.90
2015,07,04,02,57,14.90
2015,07,04,02,58,14.80
2015,07,04,02,59,14.80
2015,07,04,03,00,14.70
2015,07,04,03,01,14.70
2015,07,04,03,02,14.70
2015,07,04,03,03,14.60
2015,07,04,03,04,14.60
2015,07,04,03,05,14.60
2015,07,04,03,06,14.60
2015,07,04,03,07,14.50
2015,07,04,03,08,14.50
2015,07,04,03,09,14.50
2015,07,04,03,10,14.40
2015,07,04,03,11,14.40
2015,07,04,03,12,14.40
2015,07,04,03,13,14.40
2015,07,04,03,14,14.40
2015,07,04,03,15,14.40
2015,07,04,03,16,14.40
2015,07,04,03,17,14.40
2015,07,04,03,18,14.40
2015,07,04,03,19,14.40
2015,07,04,03,20,14.30
2015,07,04,03,21,14.30
2015,07,04,03,22,14.30
2015,07,04,03,23,14.30
2015,07,04,03,24,14.20
2015,07,04,03,25,14.20
2015,07,04,03,26,14.20
2015,07,04,03,27,14.10
2015,07,04,03,28,14.10
2015,07,04,03,29,14.10
2015,07,04,03,30,14.10
2015,07,04,03,31,14.10
2015,07,04,03,32,14.10
2015,07,04,03,33,14.10
2015,07,04,03,34,14.10
2015,07,04,03,35,14.10
2015,07,04,03,36,14.20
2015,07,04,03,37,14.20
2015,07,04,03,38,14.20
2015,07,04,03,39,14.20
2015,07,04,03,40,14.10
2015,07,04,03,41,14.10
2015,07,04,03,42,14.10
2015,07,04,03,43,14.10
2015,07,04,03,44,14.10
2015,07,04,03,45,14.10
2015,07,04,03,46,14.10
2015,07,04,03,47,14.10
2015,07,04,03,48,14.10
2015,07,04,03,49,14.10
2015,07,04,03,50,14.10
2015,07,04,03,51,14.10
2015,07,04,03,52,14.00
2015,07,04,03,53,14.10
2015,07,04,03,54,14.20
2015,07,04,03,55,14.20
2015,07,04,03,56,14.30
2015,07,04,03,57,14.40
2015,07,04,03,58,14.40
2015,07,04,03,59,14.50
2015,07,04,04,00,14.50
2015,07,04,04,01,14.60
2015,07,04,04,02,14.60
2015,07,04,04,03,14.60
2015,07,04,04,04,14.60
2015,07,04,04,05,14.60
2015,07,04,04,06,14.50
2015,07,04,04,07,14.50
2015,07,04,04,08,14.50
2015,07,04,04,09,14.50
2015,07,04,04,10,14.50
2015,07,04,04,11,14.40
2015,07,04,04,12,14.40
2015,07,04,04,13,14.40
2015,07,04,04,14,14.40
2015,07,04,04,15,14.40
2015,07,04,04,16,14.40
2015,07,04,04,17,14.30
2015,07,04,04,18,14.30
2015,07,04,04,19,14.30
2015,07,04,04,20,14.30
2015,07,04,04,21,14.30
2015,07,04,04,22,14.30
2015,07,04,04,23,14.30
2015,07,04,04,24,14.30
2015,07,04,04,25,14.30
2015,07,04,04,26,14.30
2015,07,04,04,27,14.20
2015,07,04,04,28,14.20
2015,07,04,04,29,14.20
2015,07,04,04,30,14.10
2015,07,04,04,31,14.10
2015,07,04,04,32,14.10
2015,07,04,04,33,14.10
2015,07,04,04,34,14.10
2015,07,04,04,35,14.00
2015,07,04,04,36,14.00
2015,07,04,04,37,13.90
2015,07,04,04,38,13.80
2015,07,04,04,39,13.80
2015,07,04,04,40,13.70
2015,07,04,04,41,13.70
2015,07,04,04,42,13.60
2015,07,04,04,43,13.60
2015,07,04,04,44,13.50
2015,07,04,04,45,13.50
2015,07,04,04,46,13.40
2015,07,04,04,47,13.30
2015,07,04,04,48,13.30
2015,07,04,04,49,13.30
2015,07,04,04,50,13.30
2015,07,04,04,51,13.20
2015,07,04,04,52,13.20
2015,07,04,04,53,13.20
2015,07,04,04,54,13.20
2015,07,04,04,55,13.30
2015,07,04,04,56,13.30
2015,07,04,04,57,13.40
2015,07,04,04,58,13.50
2015,07,04,04,59,13.60
2015,07,04,05,00,13.70
2015,07,04,05,01,13.80
2015,07,04,05,02,14.00
2015,07,04,05,03,14.10
2015,07,04,05,04,14.20
2015,07,04,05,05,14.20
2015,07,04,05,06,14.20
2015,07,04,05,07,14.20
2015,07,04,05,08,14.10
2015,07,04,05,09,14.10
2015,07,04,05,10,14.10
2015,07,04,05,11,14.10
2015,07,04,05,12,14.00
2015,07,04,05,13,14.00
2015,07,04,05,14,13.90
2015,07,04,05,15,13.90
2015,07,04,05,16,13.90
2015,07,04,05,17,13.90
2015,07,04,05,18,13.90
2015,07,04,05,19,13.80
2015,07,04,05,20,13.80
2015,07,04,05,21,13.80
2015,07,04,05,22,13.70
2015,07,04,05,23,13.70
2015,07,04,05,24,13.70
2015,07,04,05,25,13.70
2015,07,04,05,26,13.70
2015,07,04,05,27,13.70
2015,07,04,05,28,13.70
2015,07,04,05,29,13.70
2015,07,04,05,30,13.80
2015,07,04,05,31,13.80
2015,07,04,05,32,13.80
2015,07,04,05,33,13.80
2015,07,04,05,34,13.70
2015,07,04,05,35,13.70
2015,07,04,05,36,13.70
2015,07,04,05,37,13.70
2015,07,04,05,38,13.60
2015,07,04,05,39,13.60
2015,07,04,05,40,13.50
2015,07,04,05,41,13.40
2015,07,04,05,42,13.40
2015,07,04,05,43,13.40
2015,07,04,05,44,13.40
2015,07,04,05,45,13.30
2015,07,04,05,46,13.30
2015,07,04,05,47,13.20
2015,07,04,05,48,13.20
2015,07,04,05,49,13.20
2015,07,04,05,50,13.20
2015,07,04,05,51,13.20
2015,07,04,05,52,13.20
2015,07,04,05,53,13.20
2015,07,04,05,54,13.10
2015,07,04,05,55,13.10
2015,07,04,05,56,13.10
2015,07,04,05,57,13.10
2015,07,04,05,58,13.00
2015,07,04,05,59,13.00
2015,07,04,06,00,13.00
2015,07,04,06,01,12.90
2015,07,04,06,02,12.90
2015,07,04,06,03,12.90
2015,07,04,06,04,12.80
2015,07,04,06,05,12.80
2015,07,04,06,06,12.80
2015,07,04,06,07,12.80
2015,07,04,06,08,12.80
2015,07,04,06,09,12.80
2015,07,04,06,10,12.80
2015,07,04,06,11,12.80
2015,07,04,06,12,12.90
2015,07,04,06,13,12.90
2015,07,04,06,14,12.90
2015,07,04,06,15,12.90
2015,07,04,06,16,12.80
2015,07,04,06,17,12.80
2015,07,04,06,18,12.80
2015,07,04,06,19,12.80
2015,07,04,06,20,12.90
2015,07,04,06,21,12.90
2015,07,04,06,22,12.80
2015,07,04,06,23,12.80
2015,07,04,06,24,12.80
2015,07,04,06,25,12.80
2015,07,04,06,26,12.80
2015,07,04,06,27,12.80
2015,07,04,06,28,12.80
2015,07,04,06,29,12.80
2015,07,04,06,30,12.80
2015,07,04,06,31,12.80
2015,07,04,06,32,12.80
2015,07,04,06,33,12.80
2015,07,04,06,34,12.80
2015,07,04,06,35,12.80
2015,07,04,06,36,12.80
2015,07,04,06,37,12.90
2015,07,04,06,38,12.90
2015,07,04,06,39,13.00
2015,07,04,06,40,13.00
2015,07,04,06,41,13.10
2015,07,04,06,42,13.10
2015,07,04,06,43,13.20
2015,07,04,06,44,13.20
2015,07,04,06,45,13.20
2015,07,04,06,46,13.20
2015,07,04,06,47,13.20
2015,07,04,06,48,13.30
2015,07,04,06,49,13.30
2015,07,04,06,50,13.30
2015,07,04,06,51,13.30
2015,07,04,06,52,13.30
2015,07,04,06,53,13.40
2015,07,04,06,54,13.40
2015,07,04,06,55,13.40
2015,07,04,06,56,13.40
2015,07,04,06,57,13.50
2015,07,04,06,58,13.50
2015,07,04,06,59,13.60
2015,07,04,07,00,13.60
2015,07,04,07,01,13.60
2015,07,04,07,02,13.70
2015,07,04,07,03,13.80
2015,07,04,07,04,13.90
2015,07,04,07,05,14.00
2015,07,04,07,06,14.10
2015,07,04,07,07,14.20
2015,07,04,07,08,14.30
2015,07,04,07,09,14.40
2015,07,04,07,10,14.60
2015,07,04,07,11,14.70
2015,07,04,07,12,14.80
2015,07,04,07,13,15.00
2015,07,04,07,14,15.10
2015,07,04,07,15,15.20
2015,07,04,07,16,15.30
2015,07,04,07,17,15.40
2015,07,04,07,18,15.50
2015,07,04,07,19,15.60
2015,07,04,07,20,15.70
2015,07,04,07,21,15.80
2015,07,04,07,22,15.90
2015,07,04,07,23,16.00
2015,07,04,07,24,16.10
2015,07,04,07,25,16.20
2015,07,04,07,26,16.30
2015,07,04,07,27,16.40
2015,07,04,07,28,16.50
2015,07,04,07,29,16.60
2015,07,04,07,30,16.70
2015,07,04,07,31,16.70
2015,07,04,07,32,16.80
2015,07,04,07,33,16.90
2015,07,04,07,34,17.00
2015,07,04,07,35,17.10
2015,07,04,07,36,17.20
2015,07,04,07,37,17.30
2015,07,04,07,38,17.30
2015,07,04,07,39,17.40
2015,07,04,07,40,17.50
2015,07,04,07,41,17.60
2015,07,04,07,42,17.60
2015,07,04,07,43,17.60
2015,07,04,07,44,17.70
2015,07,04,07,45,17.70
2015,07,04,07,46,17.70
2015,07,04,07,47,17.70
2015,07,04,07,48,17.80
2015,07,04,07,49,17.80
2015,07,04,07,50,17.80
2015,07,04,07,51,17.90
2015,07,04,07,52,18.00
2015,07,04,07,53,18.00
2015,07,04,07,54,18.10
2015,07,04,07,55,18.10
2015,07,04,07,56,18.20
2015,07,04,07,57,18.30
2015,07,04,07,58,18.40
2015,07,04,07,59,18.50
2015,07,04,08,00,18.70
2015,07,04,08,01,18.80
2015,07,04,08,02,18.90
2015,07,04,08,03,19.00
2015,07,04,08,04,19.10
2015,07,04,08,05,19.10
2015,07,04,08,06,19.10
2015,07,04,08,07,19.10
2015,07,04,08,08,19.10
2015,07,04,08,09,19.10
2015,07,04,08,10,19.20
2015,07,04,08,11,19.20
2015,07,04,08,12,19.30
2015,07,04,08,13,19.40
2015,07,04,08,14,19.50
2015,07,04,08,15,19.50
2015,07,04,08,16,19.60
2015,07,04,08,17,19.70
2015,07,04,08,18,19.70
2015,07,04,08,19,19.80
2015,07,04,08,20,19.80
2015,07,04,08,21,19.90
2015,07,04,08,22,20.00
2015,07,04,08,23,20.10
2015,07,04,08,24,20.10
2015,07,04,08,25,20.10
2015,07,04,08,26,20.10
2015,07,04,08,27,20.00
2015,07,04,08,28,19.90
2015,07,04,08,29,19.80
2015,07,04,08,30,19.80
2015,07,04,08,31,19.70
2015,07,04,08,32,19.70
2015,07,04,08,33,19.70
2015,07,04,08,34,19.70
2015,07,04,08,35,19.70
2015,07,04,08,36,19.80
2015,07,04,08,37,19.80
2015,07,04,08,38,19.80
2015,07,04,08,39,19.90
2015,07,04,08,40,19.90
2015,07,04,08,41,20.00
2015,07,04,08,42,20.00
2015,07,04,08,43,20.10
2015,07,04,08,44,20.10
2015,07,04,08,45,20.10
2015,07,04,08,46,20.20
2015,07,04,08,47,20.20
2015,07,04,08,48,20.30
2015,07,04,08,49,20.30
2015,07,04,08,50,20.30
2015,07,04,08,51,20.40
2015,07,04,08,52,20.40
2015,07,04,08,53,20.40
2015,07,04,08,54,20.50
2015,07,04,08,55,20.50
2015,07,04,08,56,20.60
2015,07,04,08,57,20.70
2015,07,04,08,58,20.70
2015,07,04,08,59,20.70
2015,07,04,09,00,20.80
2015,07,04,09,01,20.90
2015,07,04,09,02,20.90
2015,07,04,09,03,21.00
2015,07,04,09,04,21.00
2015,07,04,09,05,21.10
2015,07,04,09,06,21.20
2015,07,04,09,07,21.20
2015,07,04,09,08,21.30
2015,07,04,09,09,21.30
2015,07,04,09,10,21.30
2015,07,04,09,11,21.40
2015,07,04,09,12,21.30
2015,07,04,09,13,21.30
2015,07,04,09,14,21.10
2015,07,04,09,15,21.10
2015,07,04,09,16,21.10
2015,07,04,09,17,21.10
2015,07,04,09,18,21.20
2015,07,04,09,19,21.20
2015,07,04,09,20,21.30
2015,07,04,09,21,21.40
2015,07,04,09,22,21.50
2015,07,04,09,23,21.50
2015,07,04,09,24,21.60
2015,07,04,09,25,21.70
2015,07,04,09,26,21.70
2015,07,04,09,27,21.80
2015,07,04,09,28,21.80
2015,07,04,09,29,21.90
2015,07,04,09,30,21.90
2015,07,04,09,31,22.00
2015,07,04,09,32,22.10
2015,07,04,09,33,22.10
2015,07,04,09,34,22.10
2015,07,04,09,35,22.10
2015,07,04,09,36,22.10
2015,07,04,09,37,22.20
2015,07,04,09,38,22.30
2015,07,04,09,39,22.40
2015,07,04,09,40,22.50
2015,07,04,09,41,22.60
2015,07,04,09,42,22.70
2015,07,04,09,43,22.70
2015,07,04,09,44,22.80
2015,07,04,09,45,22.90
2015,07,04,09,46,22.90
2015,07,04,09,47,22.90
2015,07,04,09,48,22.90
2015,07,04,09,49,22.90
2015,07,04,09,50,23.00
2015,07,04,09,51,23.00
2015,07,04,09,52,23.10
2015,07,04,09,53,23.10
2015,07,04,09,54,23.10
2015,07,04,09,55,23.10
2015,07,04,09,56,23.10
2015,07,04,09,57,23.20
2015,07,04,09,58,23.30
2015,07,04,09,59,23.40
2015,07,04,10,00,23.50
2015,07,04,10,01,23.40
2015,07,04,10,02,23.30
2015,07,04,10,03,23.30
2015,07,04,10,04,23.20
2015,07,04,10,05,23.20
2015,07,04,10,06,23.20
2015,07,04,10,07,23.20
2015,07,04,10,08,23.20
2015,07,04,10,09,23.20
2015,07,04,10,10,23.10
2015,07,04,10,11,23.20
2015,07,04,10,12,23.20
2015,07,04,10,13,23.30
2015,07,04,10,14,23.40
2015,07,04,10,15,23.50
2015,07,04,10,16,23.60
2015,07,04,10,17,23.80
2015,07,04,10,18,23.90
2015,07,04,10,19,23.90
2015,07,04,10,20,23.90
2015,07,04,10,21,23.90
2015,07,04,10,22,23.90
2015,07,04,10,23,23.90
2015,07,04,10,24,24.00
2015,07,04,10,25,24.00
2015,07,04,10,26,24.10
2015,07,04,10,27,24.10
2015,07,04,10,28,24.20
2015,07,04,10,29,24.20
2015,07,04,10,30,24.30
2015,07,04,10,31,24.30
2015,07,04,10,32,24.40
2015,07,04,10,33,24.40
2015,07,04,10,34,24.40
2015,07,04,10,35,24.50
2015,07,04,10,36,24.50
2015,07,04,10,37,24.40
2015,07,04,10,38,24.40
2015,07,04,10,39,24.30
2015,07,04,10,40,24.30
2015,07,04,10,41,24.20
2015,07,04,10,42,24.10
2015,07,04,10,43,24.10
2015,07,04,10,44,24.00
2015,07,04,10,45,23.90
2015,07,04,10,46,24.00
2015,07,04,10,47,24.10
2015,07,04,10,48,24.10
2015,07,04,10,49,24.10
2015,07,04,10,50,24.10
2015,07,04,10,51,24.00
2015,07,04,10,52,23.80
2015,07,04,10,53,23.70
2015,07,04,10,54,23.60
2015,07,04,10,55,23.50
2015,07,04,10,56,23.50
2015,07,04,10,57,23.40
2015,07,04,10,58,23.40
2015,07,04,10,59,23.40
2015,07,04,11,00,23.50
2015,07,04,11,01,23.50
2015,07,04,11,02,23.50
2015,07,04,11,03,23.40
2015,07,04,11,04,23.20
2015,07,04,11,05,23.20
2015,07,04,11,06,23.10
2015,07,04,11,07,23.10
2015,07,04,11,08,23.10
2015,07,04,11,09,23.00
2015,07,04,11,10,22.90
2015,07,04,11,11,22.80
2015,07,04,11,12,22.70
2015,07,04,11,13,22.70
2015,07,04,11,14,22.60
2015,07,04,11,15,22.50
2015,07,04,11,16,22.40
2015,07,04,11,17,22.30
2015,07,04,11,18,22.40
2015,07,04,11,19,22.50
2015,07,04,11,20,22.60
2015,07,04,11,21,22.50
2015,07,04,11,22,22.40
2015,07,04,11,23,22.40
2015,07,04,11,24,22.40
2015,07,04,11,25,22.30
2015,07,04,11,26,22.30
2015,07,04,11,27,22.30
2015,07,04,11,28,22.30
2015,07,04,11,29,22.40
2015,07,04,11,30,22.50
2015,07,04,11,31,22.60
2015,07,04,11,32,22.60
2015,07,04,11,33,22.70
2015,07,04,11,34,22.80
2015,07,04,11,35,22.80
2015,07,04,11,36,22.70
2015,07,04,11,37,22.80
2015,07,04,11,38,22.80
2015,07,04,11,39,22.90
2015,07,04,11,40,23.00
2015,07,04,11,41,23.10
2015,07,04,11,42,23.20
2015,07,04,11,43,23.30
2015,07,04,11,44,23.30
2015,07,04,11,45,23.30
2015,07,04,11,46,23.40
2015,07,04,11,47,23.50
2015,07,04,11,48,23.60
2015,07,04,11,49,23.70
2015,07,04,11,50,23.70
2015,07,04,11,51,23.60
2015,07,04,11,52,23.50
2015,07,04,11,53,23.40
2015,07,04,11,54,23.40
2015,07,04,11,55,23.30
2015,07,04,11,56,23.30
2015,07,04,11,57,23.30
2015,07,04,11,58,23.20
2015,07,04,11,59,23.20
2015,07,04,12,00,23.10
2015,07,04,12,01,23.10
2015,07,04,12,02,23.10
2015,07,04,12,03,23.20
2015,07,04,12,04,23.20
2015,07,04,12,05,23.20
2015,07,04,12,06,23.10
2015,07,04,12,07,23.10
2015,07,04,12,08,23.10
2015,07,04,12,09,23.20
2015,07,04,12,10,23.20
2015,07,04,12,11,23.30
2015,07,04,12,12,23.30
2015,07,04,12,13,23.40
2015,07,04,12,14,23.40
2015,07,04,12,15,23.40
2015,07,04,12,16,23.50
2015,07,04,12,17,23.60
2015,07,04,12,18,23.60
2015,07,04,12,19,23.70
2015,07,04,12,20,23.70
2015,07,04,12,21,23.70
2015,07,04,12,22,23.60
2015,07,04,12,23,23.60
2015,07,04,12,24,23.60
2015,07,04,12,25,23.50
2015,07,04,12,26,23.40
2015,07,04,12,27,23.40
2015,07,04,12,28,23.30
2015,07,04,12,29,23.30
2015,07,04,12,30,23.30
2015,07,04,12,31,23.20
2015,07,04,12,32,23.20
2015,07,04,12,33,23.20
2015,07,04,12,34,23.20
2015,07,04,12,35,23.30
2015,07,04,12,36,23.30
2015,07,04,12,37,23.40
2015,07,04,12,38,23.50
2015,07,04,12,39,23.50
2015,07,04,12,40,23.50
2015,07,04,12,41,23.50
2015,07,04,12,42,23.50
2015,07,04,12,43,23.50
2015,07,04,12,44,23.60
2015,07,04,12,45,23.70
2015,07,04,12,46,23.90
2015,07,04,12,47,23.90
2015,07,04,12,48,23.90
2015,07,04,12,49,23.90
2015,07,04,12,50,23.90
2015,07,04,12,51,23.90
2015,07,04,12,52,23.90
2015,07,04,12,53,23.90
2015,07,04,12,54,24.00
2015,07,04,12,55,24.00
2015,07,04,12,56,24.10
2015,07,04,12,57,24.10
2015,07,04,12,58,24.10
2015,07,04,12,59,24.10
2015,07,04,13,00,24.10
2015,07,04,13,01,24.10
2015,07,04,13,02,24.10
2015,07,04,13,03,24.20
2015,07,04,13,04,24.40
2015,07,04,13,05,24.60
2015,07,04,13,06,24.80
2015,07,04,13,07,24.80
2015,07,04,13,08,24.80
2015,07,04,13,09,24.60
2015,07,04,13,10,24.50
2015,07,04,13,11,24.40
2015,07,04,13,12,24.30
2015,07,04,13,13,24.30
2015,07,04,13,14,24.30
2015,07,04,13,15,24.30
2015,07,04,13,16,24.40
2015,07,04,13,17,24.40
2015,07,04,13,18,24.50
2015,07,04,13,19,24.60
2015,07,04,13,20,24.70
2015,07,04,13,21,24.60
2015,07,04,13,22,24.50
2015,07,04,13,23,24.40
2015,07,04,13,24,24.30
2015,07,04,13,25,24.30
2015,07,04,13,26,24.30
2015,07,04,13,27,24.30
2015,07,04,13,28,24.20
2015,07,04,13,29,24.10
2015,07,04,13,30,24.20
2015,07,04,13,31,24.30
2015,07,04,13,32,24.40
2015,07,04,13,33,24.60
2015,07,04,13,34,24.70
2015,07,04,13,35,24.80
2015,07,04,13,36,24.80
2015,07,04,13,37,24.90
2015,07,04,13,38,25.00
2015,07,04,13,39,25.10
2015,07,04,13,40,25.20
2015,07,04,13,41,25.40
2015,07,04,13,42,25.60
2015,07,04,13,43,25.80
2015,07,04,13,44,26.00
2015,07,04,13,45,26.10
2015,07,04,13,46,26.10
2015,07,04,13,47,26.10
2015,07,04,13,48,26.10
2015,07,04,13,49,26.10
2015,07,04,13,50,26.20
2015,07,04,13,51,26.20
2015,07,04,13,52,26.20
2015,07,04,13,53,26.30
2015,07,04,13,54,26.40
2015,07,04,13,55,26.50
2015,07,04,13,56,26.60
2015,07,04,13,57,26.80
2015,07,04,13,58,26.90
2015,07,04,13,59,26.90
2015,07,04,14,00,26.90
2015,07,04,14,01,26.90
2015,07,04,14,02,27.00
2015,07,04,14,03,27.00
2015,07,04,14,04,27.10
2015,07,04,14,05,27.20
2015,07,04,14,06,27.30
2015,07,04,14,07,27.40
2015,07,04,14,08,27.50
2015,07,04,14,09,27.60
2015,07,04,14,10,27.60
2015,07,04,14,11,27.50
2015,07,04,14,12,27.30
2015,07,04,14,13,27.10
2015,07,04,14,14,26.90
2015,07,04,14,15,26.80
2015,07,04,14,16,26.70
2015,07,04,14,17,26.70
2015,07,04,14,18,26.70
2015,07,04,14,19,26.80
2015,07,04,14,20,26.80
2015,07,04,14,21,26.80
2015,07,04,14,22,26.80
2015,07,04,14,23,26.70
2015,07,04,14,24,26.50
2015,07,04,14,25,26.30
2015,07,04,14,26,26.30
2015,07,04,14,27,26.30
2015,07,04,14,28,26.30
2015,07,04,14,29,26.40
2015,07,04,14,30,26.40
2015,07,04,14,31,26.50
2015,07,04,14,32,26.60
2015,07,04,14,33,26.70
2015,07,04,14,34,26.80
2015,07,04,14,35,27.00
2015,07,04,14,36,27.10
2015,07,04,14,37,27.20
2015,07,04,14,38,27.40
2015,07,04,14,39,27.50
2015,07,04,14,40,27.60
2015,07,04,14,41,27.80
2015,07,04,14,42,27.90
2015,07,04,14,43,28.10
2015,07,04,14,44,28.20
2015,07,04,14,45,28.40
2015,07,04,14,46,28.40
2015,07,04,14,47,28.40
2015,07,04,14,48,28.40
2015,07,04,14,49,28.40
2015,07,04,14,50,28.40
2015,07,04,14,51,28.40
2015,07,04,14,52,28.50
2015,07,04,14,53,28.70
2015,07,04,14,54,28.80
2015,07,04,14,55,28.80
2015,07,04,14,56,28.90
2015,07,04,14,57,29.10
2015,07,04,14,58,29.30
2015,07,04,14,59,29.40
2015,07,04,15,00,29.40
2015,07,04,15,01,29.40
2015,07,04,15,02,29.40
2015,07,04,15,03,29.40
2015,07,04,15,04,29.40
2015,07,04,15,05,29.40
2015,07,04,15,06,29.40
2015,07,04,15,07,29.50
2015,07,04,15,08,29.60
2015,07,04,15,09,29.70
2015,07,04,15,10,29.60
2015,07,04,15,11,29.50
2015,07,04,15,12,29.30
2015,07,04,15,13,29.30
2015,07,04,15,14,29.20
2015,07,04,15,15,29.00
2015,07,04,15,16,28.90
2015,07,04,15,17,28.90
2015,07,04,15,18,28.90
2015,07,04,15,19,28.80
2015,07,04,15,20,28.80
2015,07,04,15,21,28.80
2015,07,04,15,22,28.90
2015,07,04,15,23,28.90
2015,07,04,15,24,29.00
2015,07,04,15,25,29.20
2015,07,04,15,26,29.40
2015,07,04,15,27,29.50
2015,07,04,15,28,29.50
2015,07,04,15,29,29.60
2015,07,04,15,30,29.60
2015,07,04,15,31,29.60
2015,07,04,15,32,29.70
2015,07,04,15,33,29.70
2015,07,04,15,34,29.70
2015,07,04,15,35,29.70
2015,07,04,15,36,29.70
2015,07,04,15,37,29.60
2015,07,04,15,38,29.60
2015,07,04,15,39,29.50
2015,07,04,15,40,29.50
2015,07,04,15,41,29.50
2015,07,04,15,42,29.40
2015,07,04,15,43,29.40
2015,07,04,15,44,29.30
2015,07,04,15,45,29.20
2015,07,04,15,46,29.10
2015,07,04,15,47,29.10
2015,07,04,15,48,29.10
2015,07,04,15,49,29.00
2015,07,04,15,50,29.00
2015,07,04,15,51,28.90
2015,07,04,15,52,28.90
2015,07,04,15,53,28.90
2015,07,04,15,54,28.90
2015,07,04,15,55,28.90
2015,07,04,15,56,28.90
2015,07,04,15,57,28.90
2015,07,04,15,58,28.80
2015,07,04,15,59,28.70
2015,07,04,16,00,28.70
2015,07,04,16,01,28.60
2015,07,04,16,02,28.60
2015,07,04,16,03,28.60
2015,07,04,16,04,28.60
2015,07,04,16,05,28.60
2015,07,04,16,06,28.60
2015,07,04,16,07,28.70
2015,07,04,16,08,28.70
2015,07,04,16,09,28.70
2015,07,04,16,10,28.80
2015,07,04,16,11,28.80
2015,07,04,16,12,28.90
2015,07,04,16,13,28.90
2015,07,04,16,14,28.90
2015,07,04,16,15,28.90
2015,07,04,16,16,28.90
2015,07,04,16,17,28.90
2015,07,04,16,18,28.90
2015,07,04,16,19,28.90
2015,07,04,16,20,28.90
2015,07,04,16,21,28.90
2015,07,04,16,22,28.80
2015,07,04,16,23,28.80
2015,07,04,16,24,28.70
2015,07,04,16,25,28.60
2015,07,04,16,26,28.50
2015,07,04,16,27,28.50
2015,07,04,16,28,28.50
2015,07,04,16,29,28.60
2015,07,04,16,30,28.60
2015,07,04,16,31,28.70
2015,07,04,16,32,28.70
2015,07,04,16,33,28.80
2015,07,04,16,34,28.80
2015,07,04,16,35,28.90
2015,07,04,16,36,29.00
2015,07,04,16,37,29.10
2015,07,04,16,38,29.10
2015,07,04,16,39,29.00
2015,07,04,16,40,28.90
2015,07,04,16,41,28.80
2015,07,04,16,42,28.80
2015,07,04,16,43,28.70
2015,07,04,16,44,28.70
2015,07,04,16,45,28.70
2015,07,04,16,46,28.80
2015,07,04,16,47,28.80
2015,07,04,16,48,28.80
2015,07,04,16,49,28.80
2015,07,04,16,50,28.80
2015,07,04,16,51,28.80
2015,07,04,16,52,28.80
2015,07,04,16,53,28.80
2015,07,04,16,54,28.90
2015,07,04,16,55,28.90
2015,07,04,16,56,28.80
2015,07,04,16,57,28.80
2015,07,04,16,58,28.90
2015,07,04,16,59,28.90
2015,07,04,17,00,28.90
2015,07,04,17,01,28.80
2015,07,04,17,02,28.80
2015,07,04,17,03,28.70
2015,07,04,17,04,28.60
2015,07,04,17,05,28.50
2015,07,04,17,06,28.40
2015,07,04,17,07,28.40
2015,07,04,17,08,28.40
2015,07,04,17,09,28.40
2015,07,04,17,10,28.40
2015,07,04,17,11,28.40
2015,07,04,17,12,28.40
2015,07,04,17,13,28.30
2015,07,04,17,14,28.30
2015,07,04,17,15,28.30
2015,07,04,17,16,28.30
2015,07,04,17,17,28.30
2015,07,04,17,18,28.30
2015,07,04,17,19,28.30